Showing default

RROCI-2, 59106

Orbit data source: Space-Track

RROCI-2, 59106 is an American payload satellite in SSO that was launched on Mon, 04 Mar 2024 UTC via an FALCON 9 launch vehicle from the Air Force Western Test Range (AFWTR). Payload-class satellites include a variety of spacecraft equipped with specific instruments for various scientific and technological missions. These include communications satellites like Starlink; space stations such as the ISS; scientific satellites like the Hubble; Earth observation satellites from companies like Planet Labs, Umbra, and HawkEye 360; GPS; miniature CubeSats for education and research; and military/defense satellites.

Loading next visibility...
Identifier
59106, 2024-043J
Orbit
SSO
Country
Flag of USUS
Related business
Manufacturer
Orion Space Sol.
Mission
Operational Commercial Weather
Bus & Motor
CUBESAT 12U, Unknown motor
Mass
19 kg wet, 19 kg dry
Launch date (UTC)
2024-03-04 (2 years ago)
Launch vehicle
FALCON 9
Launch site
Air Force Western Test Range (AFWTR)
Object type
Payload
Rocket body
Debris
Shape & HBR
Box + 2 Pan, 0.5 m
Radar Cross Section
0.126 m², Medium (>0.1 m² and < 1m²)

Expand to show TLE details & history
Last TLE update: 6 hours ago

TLE from 6 hours ago
0 RROCI-2
1 59106U 24043J   26034.26474274  .00003015  00000-0  25275-3 0  9998
2 59106  97.8271 166.2030 0009080  78.1164 282.1077 14.99142078104691
Epoch: 2026-02-03T06:21Z
TLE epoch observation values (Epoch: 2026-02-03T06:21:13.772Z)
Latitude
0.00003°
Longitude
-62.55255°
Altitude
571.277 km
Speed
7.576 km/s
True Right ascension
11h 04m 48s
True Declination
0° 00' 00"
Sunlit
Object was in full shadow at epoch
Visualization orbit readout
Latitude
Unknown
Longitude
Unknown
Altitude
Unknown
Speed
Unknown
Apparent Right ascension
Unknown
Apparent Declination
Unknown
Sunlit
N/A
Visualization observer readout
Local Sidereal Time
13:54:43
Azimuth
Unknown
Elevation
Unknown
Doppler factor
Unknown
Orbital elements
Apogee altitude
572.864 km
Perigee altitude
560.252 km
Semi-major axis
6,944.695 km
Eccentricity
0.00091
Inclination
97.8271°
RAAN
166.203°
Arg. of periapsis
78.1164°
True anomaly
282.00594°
Mean anomaly
282.1077°
Eccentric anomaly
282.05682°
Mean motion
3.75028 °/min
Orbital period
95.99 mins
BSTAR
0.00025275
Loading maneuver chart data...
Computing Atmospheric mass density...
Loading historical data...
Loading historical data...
Loading historical data...
Loading historical data...
Loading historical data...
Loading historical data...
Loading historical data...

Documentation

Showing up to 5 results
|